Home > Weather > El Aaiún > Past weeks

Past Weather in El Aaiún, Western Sahara — Yesterday and Last 2 Weeks

Now
84 °F

Sunny.


Feels Like: 84 °F
Forecast: 69 / 79 °F
Wind: 22 mph from Northeast

Location: Laayoune/Hassan Isl

Current Time: Aug 24, 2016 at 7:17:28 PM

Latest Report: Aug 24, 2016 at 6:00 PM


Visibility: 10 mi

Pressure: 29.89 "Hg

Humidity: 45%

Dew Point: 61 °F

Location of El AaiúnLocation

Past Weather in El Aaiún — Graph

°F

El Aaiún Temperature Yesterday

Maximum temperature yesterday: 91 °F (at 4:00 PM)
Minimum temperature yesterday: 68 °F (at 7:00 AM)
Average temperature yesterday: 77 °F

High & Low Weather Summary for the Past Weeks

 TemperatureHumidityPressure
High111 °F (Aug 10, 3:00 PM)94% (Aug 17, 4:00 AM)30.07 "Hg (Aug 17, 4:00 AM)
Low68 °F (Aug 12, 3:00 AM)15% (Aug 10, 2:00 PM)29.74 "Hg (Aug 10, 4:00 PM)
Average78 °F66%29.95 "Hg
* Reported Aug 9 6:00 PM — Aug 24 6:00 PM, El Aaiún, Weather by CustomWeather, © 2016

Note: Actual official high and low records may vary slightly from our data, if they occured in-between our weather recording intervals... More about our weather records

Advertising

El Aaiún Weather History for the Previous 24 Hours

Scroll right to see more
 ConditionsComfort  
Time TempWeatherWind HumidityBarometerVisibility
6:00 PM
Wed, Aug 24
84 °FSunny.22 mph45%29.89 "Hg10 mi
5:00 PM86 °FSunny.22 mph46%29.89 "Hg10 mi
4:00 PM86 °FSunny.23 mph46%29.89 "Hg10 mi
3:00 PM86 °FSunny.23 mph43%29.92 "Hg10 mi
2:00 PM86 °FSunny.23 mph43%29.92 "Hg10 mi
1:00 PM84 °FSunny.21 mph48%29.95 "Hg10 mi
12:00 PM82 °FSunny.18 mph48%29.95 "Hg10 mi
11:00 AM77 °FSunny.18 mph61%29.98 "Hg10 mi
10:00 AM73 °FPassing clouds.16 mph69%29.98 "HgN/A
9:00 AM72 °FPassing clouds.16 mph73%29.98 "HgN/A
8:00 AM70 °FPassing clouds.15 mph78%29.98 "Hg5 mi
7:00 AM70 °FPassing clouds.24 mph78%29.95 "Hg5 mi
6:00 AM70 °FPassing clouds.17 mph78%29.95 "Hg5 mi
4:00 AM70 °FPassing clouds.20 mph83%29.95 "Hg5 mi
3:00 AM68 °FPassing clouds.16 mph88%29.95 "Hg5 mi
2:00 AM70 °FPassing clouds.15 mph83%29.98 "Hg5 mi
1:00 AM70 °FPassing clouds.16 mph83%30.01 "Hg5 mi
12:00 AM70 °FPassing clouds.17 mph94%30.01 "Hg5 mi
11:00 PM
Tue, Aug 23
70 °FClear.15 mph88%30.01 "Hg5 mi
10:00 PM72 °FSunny.16 mph78%30.01 "Hg10 mi
9:00 PM73 °FSunny.16 mph74%29.98 "Hg10 mi
8:00 PM79 °FSunny.17 mph61%29.98 "Hg10 mi
7:00 PM82 °FSunny.20 mph55%29.98 "Hg10 mi
Weather by CustomWeather, © 2016

See weather overviewHow to use our weather pages